[[{"header":{"parameterUnit":"m.s-1","parameterCategory":1,"la1":30.2991,"la2":30.254,"lo1":-89.0895,"lo2":-89.0444,"dy":0.0017,"dx":0.0017,"nx":28,"ny":28,"refTime":"2023-10-05T21:00:00:Z","depth":0,"parameterNumber":2,"parameterNumberName":"U-component_of_WINDS"},"data":[0,0,0,0,0,0,0,0,0,0,0,0,0,0,0,0,0,0,0,0,0,0,0,0,0,0,0,0,0,0,0,0,0,0,0,0,0,0,0,0,0,0,0,0,0,0,0,0,0,0,0,0,0,0,0,0,0,0,-2.122,-2.1221,0,-2.1294,-2.1295,-2.1296,-2.1297,-2.1296,-2.1295,-2.1294,-2.1369,-2.1371,-2.1374,0,0,0,0,0,0,0,0,0,0,0,0,0,-2.1078,-2.1081,-2.122,-2.1221,-2.1222,-2.1294,-2.1295,-2.1296,-2.1297,-2.1296,-2.1294,-2.1293,-2.1368,-2.1371,-2.1374,0,0,0,0,0,0,0,0,0,0,0,0,0,-2.1145,-2.1082,-2.122,-2.1231,-2.1232,-2.1294,-2.1295,-2.1296,-2.1297,-2.1296,-2.1294,-2.1293,-2.1366,-2.1371,-2.1375,-2.143,0,0,-2.1388,-2.139,0,0,0,0,0,0,0,0,-2.1141,-2.115,-2.1228,-2.123,-2.1232,-2.1285,-2.1273,-2.1341,-2.1297,-2.1272,-2.1294,-2.1292,-2.1342,-2.1348,-2.1365,-2.1433,-2.1436,-2.1388,-2.1391,-2.1393,-2.1394,0,0,0,0,0,0,0,-2.1136,-2.1147,-2.1249,-2.1229,-2.1232,-2.1232,-2.124,-2.1286,-2.1314,-2.1274,-2.1275,-2.1284,-2.1342,-2.1361,-2.1367,-2.1438,-2.1388,-2.1392,-2.1395,-2.1396,-2.1556,-2.1557,0,0,0,0,0,0,-2.113,-2.1143,-2.1247,-2.1251,-2.1182,-2.1236,-2.1244,-2.1269,-2.1314,-2.1319,-2.1285,-2.1283,-2.1354,-2.1362,-2.1369,-2.1436,-2.1393,-2.1397,-2.1399,-2.1554,-2.1556,-2.1558,0,0,0,0,0,0,-2.1127,-2.1139,-2.1244,-2.1197,-2.1211,-2.124,-2.1267,-2.1271,-2.129,-2.1321,-2.1326,-2.1298,-2.1353,-2.1363,-2.1415,-2.1439,-2.1399,-2.1403,-2.1552,-2.1555,-2.1557,-2.1571,0,0,0,0,0,0,-2.1123,-2.1138,-2.1159,-2.1198,-2.1213,-2.1288,-2.1269,-2.1274,-2.1297,-2.1296,-2.1335,-2.134,-2.1353,-2.1409,-2.1419,-2.1444,-2.1406,-2.155,-2.1553,-2.1556,-2.1568,-2.1573,-2.1578,0,0,0,0,0,-2.1117,-2.1159,-2.116,-2.1172,-2.124,-2.1289,-2.1298,-2.1312,-2.1299,-2.132,-2.1341,-2.1339,-2.1435,-2.1414,-2.1426,-2.1452,-2.1548,-2.1552,-2.1556,-2.1566,-2.1572,-2.1578,0,0,0,0,0,0,-2.1121,-2.1164,-2.1165,-2.1221,-2.1252,-2.1289,-2.1316,-2.1318,-2.1353,-2.135,-2.1366,-2.1375,-2.1426,-2.1445,-2.1421,-2.1508,-2.149,-2.1497,-2.1494,-2.15,-2.1505,-2.1498,-2.141,0,0,0,0,0,-2.1129,-2.1165,-2.1201,-2.1247,-2.1262,-2.1287,-2.1309,-2.1318,-2.135,-2.1362,-2.1387,-2.1418,-2.1455,-2.1479,-2.1515,-2.1572,-2.158,-2.1596,-2.1601,-2.1605,-2.1609,-2.1641,-2.1648,-2.157,-2.157,-2.157,0,0,-2.1144,-2.1172,-2.1194,-2.1248,-2.1273,-2.131,-2.1298,-2.1338,-2.1366,-2.1368,-2.1418,-2.1438,-2.1474,-2.1528,-2.1553,-2.1545,-2.1633,-2.161,-2.1612,-2.1615,-2.1646,-2.1653,-2.166,-2.1572,-2.1572,-2.1572,0,0,-2.119,-2.1216,-2.1257,-2.1282,-2.132,-2.1337,-2.1347,-2.1385,-2.1398,-2.1449,-2.1452,-2.1486,-2.155,-2.1575,-2.1596,-2.1656,-2.1655,-2.1667,-2.1691,-2.1722,-2.1728,-2.1734,-2.1754,-2.1761,-2.1672,-2.1672,-2.1672,0,-2.1204,-2.1261,-2.1277,-2.1318,-2.1342,-2.1347,-2.1389,-2.1413,-2.146,-2.1477,-2.1467,-2.1548,-2.1573,-2.1634,-2.1648,-2.1666,-2.1677,-2.1661,-2.1726,-2.1732,-2.1737,-2.1757,-2.1764,-2.1673,-2.1673,-2.1673,-2.1673,0,-2.1276,-2.1315,-2.1344,-2.139,-2.1418,-2.1459,-2.1481,-2.1507,-2.1514,-2.1532,-2.1584,-2.1615,-2.1657,-2.1673,-2.168,-2.1735,-2.1729,-2.1723,-2.1704,-2.1745,-2.1764,-2.1772,-2.1675,-2.1675,-2.1674,-2.1674,0,0,-2.1324,-2.1381,-2.1391,-2.1412,-2.1456,-2.1487,-2.1529,-2.1571,-2.1592,-2.1626,-2.1661,-2.1716,-2.1712,-2.1736,-2.1746,-2.1774,-2.1818,-2.1764,-2.1765,-2.1772,-2.1881,-2.1883,-2.1892,-2.1819,-2.1821,-2.1822,-2.1877,0,-2.1374,-2.1448,-2.1465,-2.1528,-2.1565,-2.1572,-2.1609,-2.164,-2.1658,-2.1692,-2.1713,-2.1751,-2.1742,-2.1757,-2.1785,-2.1807,-2.184,-2.1803,-2.1851,-2.1852,-2.184,-2.1902,-2.1904,-2.1955,-2.1885,-2.1886,-2.1887,0,-2.1442,-2.1477,-2.1545,-2.1584,-2.1601,-2.1633,-2.1673,-2.1706,-2.1742,-2.1754,-2.1782,-2.179,-2.1834,-2.1816,-2.1877,-2.1851,-2.1873,-2.1887,-2.1889,-2.1892,-2.187,-2.1905,-2.1971,-2.1978,-2.1899,-2.1898,-2.1897,0,-2.1468,-2.1534,-2.1582,-2.1601,-2.1649,-2.1671,-2.1692,-2.1727,-2.1752,-2.1788,-2.1804,-2.1845,-2.1866,-2.1898,-2.1917,-2.1902,-2.1976,-2.196,-2.1987,-2.1986,-2.2,-2.1998,-2.2069,-2.2017,-2.2016,-2.2016,-2.2016,0,-2.1521,-2.1562,-2.1595,-2.1625,-2.1671,-2.1691,-2.1736,-2.1757,-2.1788,-2.1822,-2.1832,-2.1864,-2.1888,-2.1923,-2.1939,-2.1987,-2.1997,-2.2007,-2.201,-2.2005,-2.2004,-2.2018,-2.2014,-2.2018,-2.2018,-2.2017,-2.2017,0,-2.1558,-2.1582,-2.1635,-2.1677,-2.1689,-2.1721,-2.1757,-2.1786,-2.1806,-2.1849,-2.186,-2.1891,-2.1934,-2.1957,-2.2009,-2.202,-2.2073,-2.2075,-2.2061,-2.2062,-2.2087,-2.2084,-2.2168,-2.2179,-2.2121,-2.2121,-2.2122,0,-2.1589,-2.1621,-2.1666,-2.169,-2.1712,-2.175,-2.1776,-2.1798,-2.1824,-2.1868,-2.1892,-2.1935,-2.1971,-2.2038,-2.2065,-2.2106,-2.2109,-2.2135,-2.2115,-2.2109,-2.2108,-2.2105,-2.2108,-2.2138,-2.2138,-2.2139,-2.2139,0,-2.1642,-2.1653,-2.1689,-2.1731,-2.1762,-2.1795,-2.1828,-2.1847,-2.1875,-2.1904,-2.1948,-2.1976,-2.2031,-2.2073,-2.2117,-2.2139,-2.2143,-2.2146,-2.2154,-2.2148,-2.2138,-2.2143,-2.2069,-2.2143,-2.2143,-2.2143,-2.2142,-2.2142,-2.1676,-2.1704,-2.1741,-2.1782,-2.181,-2.1841,-2.1871,-2.1895,-2.1932,-2.1978,-2.199,-2.2036,-2.2072,-2.2131,-2.2155,-2.2191,-2.2186,-2.2198,-2.2201,-2.2203,-2.2203,-2.2134,-2.2199,-2.2199,-2.2199,-2.2199,-2.2199,0,-2.1728,-2.1753,-2.179,-2.1837,-2.1869,-2.1873,-2.191,-2.1937,-2.1978,-2.2011,-2.2047,-2.2097,-2.2139,-2.2171,-2.2214,-2.2237,-2.2241,-2.2248,-2.2245,-2.225,-2.2206,-2.2194,-2.2244,-2.2244,-2.2244,-2.2244,-2.2244,-2.2244,-2.1759,-2.1807,-2.1823,-2.1885,-2.191,-2.1955,-2.1976,-2.2005,-2.2032,-2.2089,-2.2124,-2.2145,-2.2178,-2.2224,-2.2262,-2.2271,-2.2286,-2.2292,-2.23,-2.2258,-2.2253,-2.2248,-2.2237,-2.2296,-2.2296,-2.2341,-2.2342,-2.2342]},{"header":{"parameterUnit":"m.s-1","parameterCategory":1,"la1":30.2991,"la2":30.254,"lo1":-89.0895,"lo2":-89.0444,"dy":0.0017,"dx":0.0017,"nx":28,"ny":28,"refTime":"2023-10-05T21:00:00:Z","depth":0,"parameterNumber":3,"parameterNumberName":"V-component_of_WINDS"},"data":[0,0,0,0,0,0,0,0,0,0,0,0,0,0,0,0,0,0,0,0,0,0,0,0,0,0,0,0,0,0,0,0,0,0,0,0,0,0,0,0,0,0,0,0,0,0,0,0,0,0,0,0,0,0,0,0,0,0,1.4252,1.4252,0,1.4258,1.4258,1.4258,1.4223,1.4222,1.4221,1.422,1.4225,1.4226,1.4227,0,0,0,0,0,0,0,0,0,0,0,0,0,1.4208,1.4209,1.4252,1.4252,1.4252,1.4258,1.4258,1.4259,1.4223,1.4222,1.4221,1.422,1.4225,1.4226,1.4227,0,0,0,0,0,0,0,0,0,0,0,0,0,1.4222,1.4209,1.4252,1.4235,1.4234,1.4258,1.4258,1.4259,1.4223,1.4222,1.422,1.4219,1.4224,1.4226,1.4228,1.4268,0,0,1.4233,1.4233,0,0,0,0,0,0,0,0,1.4221,1.4223,1.4237,1.4236,1.4235,1.4238,1.4245,1.4262,1.4224,1.4227,1.422,1.4218,1.4231,1.4232,1.4236,1.4268,1.4269,1.4233,1.4234,1.4234,1.4235,0,0,0,0,0,0,0,1.422,1.4223,1.4254,1.4238,1.4236,1.4227,1.4227,1.4248,1.4237,1.4227,1.4224,1.4226,1.423,1.4235,1.4236,1.4269,1.4233,1.4234,1.4235,1.4236,1.4335,1.4337,0,0,0,0,0,0,1.4221,1.4222,1.4254,1.4254,1.4224,1.4229,1.4229,1.4239,1.4237,1.4235,1.4227,1.4224,1.4233,1.4234,1.4236,1.4284,1.4234,1.4236,1.4237,1.4334,1.4336,1.4338,0,0,0,0,0,0,1.4221,1.4225,1.4254,1.4238,1.4241,1.4231,1.4242,1.424,1.4245,1.4237,1.4235,1.4234,1.4232,1.4234,1.4261,1.4284,1.4237,1.4238,1.4332,1.4334,1.4337,1.438,0,0,0,0,0,0,1.4219,1.4224,1.424,1.4238,1.4242,1.4279,1.4244,1.4241,1.4248,1.4244,1.4243,1.4242,1.4231,1.4259,1.4262,1.4285,1.4239,1.433,1.4333,1.4336,1.4377,1.4384,1.439,0,0,0,0,0,1.4218,1.4251,1.4241,1.4245,1.4261,1.428,1.4282,1.4269,1.425,1.4265,1.4261,1.4242,1.4281,1.4262,1.4266,1.4289,1.4328,1.4332,1.4336,1.4374,1.4383,1.439,0,0,0,0,0,0,1.4254,1.4251,1.4239,1.4273,1.4277,1.4274,1.4293,1.4278,1.4288,1.4284,1.4267,1.4267,1.4297,1.4296,1.4274,1.4329,1.4301,1.4306,1.4329,1.4337,1.4344,1.4343,1.4241,0,0,0,0,0,1.4267,1.4283,1.4278,1.4309,1.4312,1.4302,1.431,1.43,1.4303,1.4305,1.4302,1.4306,1.4319,1.4328,1.4339,1.4377,1.4376,1.4395,1.4402,1.4407,1.4411,1.4432,1.4441,1.435,1.435,1.435,0,0,1.4291,1.4291,1.4302,1.4316,1.4318,1.4336,1.4304,1.4323,1.4336,1.4307,1.4333,1.4331,1.4334,1.4367,1.4381,1.4367,1.4437,1.4412,1.4416,1.4418,1.4437,1.4445,1.4453,1.4353,1.4352,1.4352,0,0,1.4346,1.4347,1.4373,1.4376,1.4381,1.4374,1.4381,1.438,1.4378,1.4404,1.4384,1.4398,1.4421,1.4424,1.4429,1.4487,1.447,1.4491,1.4526,1.4546,1.4553,1.456,1.4581,1.4589,1.4495,1.4495,1.4495,0,1.4376,1.4402,1.4388,1.4409,1.4416,1.4393,1.4419,1.4422,1.443,1.4435,1.4419,1.4448,1.4449,1.4482,1.4497,1.4501,1.4508,1.4491,1.4554,1.456,1.4565,1.4585,1.4593,1.4498,1.4498,1.4497,1.4497,0,1.4439,1.4457,1.4477,1.4487,1.4496,1.4519,1.4509,1.452,1.451,1.4505,1.4532,1.4532,1.4544,1.4551,1.454,1.4583,1.4575,1.4557,1.4528,1.4577,1.4595,1.4603,1.4502,1.4501,1.45,1.4499,0,0,1.4515,1.4518,1.4526,1.453,1.4534,1.4548,1.4571,1.4583,1.4593,1.4599,1.4618,1.4639,1.4623,1.4628,1.4618,1.4635,1.4682,1.4615,1.4615,1.4628,1.4731,1.4745,1.4754,1.4671,1.4673,1.4674,1.4731,0,1.4569,1.4609,1.4598,1.4638,1.4655,1.4634,1.4654,1.4658,1.4655,1.4668,1.4664,1.468,1.4657,1.466,1.4677,1.4673,1.4702,1.4669,1.4689,1.469,1.4689,1.4763,1.4778,1.4832,1.4738,1.4739,1.474,0,1.4637,1.4647,1.4689,1.4692,1.4698,1.4716,1.4728,1.4741,1.4746,1.4742,1.475,1.4736,1.4758,1.473,1.4761,1.4739,1.4746,1.4746,1.4748,1.4749,1.4718,1.4767,1.4848,1.4857,1.4751,1.475,1.4749,0,1.4689,1.4714,1.4742,1.4747,1.475,1.4763,1.4765,1.4769,1.4777,1.4787,1.4792,1.4804,1.4811,1.482,1.481,1.4791,1.4843,1.4814,1.4841,1.4842,1.4853,1.4853,1.4937,1.4858,1.4857,1.4857,1.4857,0,1.4751,1.4777,1.4766,1.4784,1.4813,1.4801,1.483,1.4829,1.4833,1.485,1.4832,1.4848,1.4834,1.4849,1.4841,1.4868,1.4871,1.4869,1.4867,1.4871,1.4871,1.4876,1.4872,1.4859,1.4859,1.4859,1.4858,0,1.4814,1.4808,1.4838,1.4839,1.484,1.4862,1.4863,1.4879,1.4875,1.4897,1.4901,1.4894,1.4911,1.4902,1.4919,1.4914,1.495,1.4942,1.4949,1.4947,1.4975,1.4973,1.5066,1.5077,1.499,1.4991,1.4991,0,1.4854,1.4874,1.4878,1.4889,1.4893,1.491,1.4919,1.4908,1.4918,1.4926,1.4941,1.4957,1.4969,1.4997,1.4993,1.5006,1.4999,1.5031,1.5001,1.5005,1.5,1.5,1.5002,1.5037,1.5038,1.5039,1.5039,0,1.4926,1.4922,1.4937,1.4951,1.4963,1.4973,1.4981,1.4991,1.4979,1.4992,1.501,1.5019,1.5037,1.5053,1.5065,1.5066,1.5051,1.5049,1.5056,1.5061,1.5064,1.5064,1.4966,1.5047,1.5046,1.5045,1.5045,1.5045,1.4979,1.4997,1.5003,1.502,1.5026,1.5034,1.505,1.5049,1.5064,1.5078,1.507,1.5091,1.5096,1.5111,1.5114,1.513,1.5118,1.5128,1.513,1.5133,1.5138,1.5061,1.5132,1.5132,1.5132,1.5132,1.5131,0,1.5051,1.5054,1.507,1.5083,1.5097,1.5083,1.5091,1.5104,1.5123,1.5129,1.5142,1.5163,1.5178,1.5176,1.5191,1.5204,1.5198,1.5208,1.5207,1.5208,1.5148,1.514,1.5213,1.5213,1.5213,1.5213,1.5213,1.5213,1.509,1.5119,1.5117,1.5149,1.5151,1.5173,1.5179,1.5187,1.5193,1.5217,1.523,1.5229,1.5233,1.5247,1.5261,1.526,1.5267,1.528,1.5277,1.522,1.5212,1.5204,1.5198,1.5281,1.5281,1.5336,1.5336,1.5337]}]]